Overview Statistics Trail Chart Weather Telemetry Raw packets
 

This is the latest recevied weather packets stored in our database for station/object SR4DIG-13. If no packets are shown the sender has not sent any weather packets the latest 10 day(s).

<< 5 6 7 8 9 10 11 >>
Time Temp. Humidity Pressure Rain* Wind** Luminosity Snow
1788607346 22.22° C 49% 1007.7 hPa 0 mm - - -
1788607045 22.22° C 51% 1007.7 hPa 0 mm - - -
1788606745 21.11° C 51% 1007.7 hPa 0 mm - - -
1788606444 21.67° C 51% 1007.6 hPa 0 mm - - -
1788606113 21.11° C 51% 1007.6 hPa 0 mm - - -
1788605722 20.56° C 53% 1007.4 hPa 0 mm - - -
1788605239 20.56° C 53% 1007.6 hPa 0 mm - - -
1788604938 20.56° C 52% 1007.5 hPa 0 mm - - -
1788604637 21.11° C 52% 1007.4 hPa 0 mm - - -
1788604336 21.11° C 52% 1007.4 hPa 0 mm - - -
1788604035 21.11° C 53% 1007.2 hPa 0 mm - - -
1788603734 21.11° C 53% 1007.3 hPa 0 mm - - -
1788603433 21.11° C 55% 1007.4 hPa 0 mm - - -
1788603133 20° C 60% 1007.5 hPa 0 mm - - -
1788602832 18.33° C 62% 1007.6 hPa 0 mm - - -
1788602230 17.78° C 62% 1007.5 hPa 0 mm - - -
1788601928 17.78° C 62% 1007.6 hPa 0 mm - - -
1788601628 17.78° C 61% 1007.7 hPa 0 mm - - -
1788601327 18.33° C 59% 1007.7 hPa 0 mm - - -
1788601026 18.33° C 59% 1007.6 hPa 0 mm - - -
1788600725 18.89° C 58% 1007.5 hPa 0 mm - - -
1788600424 19.44° C 58% 1007.5 hPa 0 mm - - -
1788600124 18.89° C 61% 1007.3 hPa 0 mm - - -
1788599810 17.78° C 64% 1007.3 hPa 0 mm - - -
1788599316 17.78° C 64% 1007.1 hPa 0 mm - - -

* Rain latest hour (hover to see other rain measurements)
** Current wind speed in m/s (hover to see current wind gust speed)